TJS-19 AKM, 64094

Orbit data source: Space-Track

TJS-19 AKM, 64094 is space debris in GEO originally from a launch on Mon, 12 May 2025 UTC launched from the Xichang Space Center, China (XSC). Debris objects in space refer to the collection of defunct objects orbiting the Earth. Examples of debris include non-operational satellites, rocket bodies, and fragments generated from explosions, collisions, or faulty payload assembly.

Not visible in the next 10 days
Identifier
64094, 2025-097C
Orbit
GEO
Country
Flag of CNCN / PRC
Related business
Manufacturer
SAST
Mission
Spacecraft
Bus & Motor
Unknown
Mass
~500 kg wet, ~500 kg dry
Launch date (UTC)
2025-05-12 (1 year ago)
Launch vehicle
Unknown
Launch site
Xichang Space Center, China (XSC)
Object type
Payload
Rocket body
Debris
Shape & HBR
Box, 0.5 m
Radar Cross Section
1.500 m²

Expand to show TLE details & history
Last TLE update: 1 day ago

TLE from 1 day ago
0 TJS-19 AKM
1 64094U 25097C   26194.71692814 -.00000226  00000-0  00000+0 0  9996
2 64094   3.2284 318.2796 0014812 222.2163 138.0858  0.98838470  4187
Epoch: 2026-07-13T17:12Z
TLE epoch observation values (Epoch: 2026-07-13T17:12:22.591Z)
Latitude
0.00001°
Longitude
129.00831°
Altitude
36,239.644 km
Speed
3.057 km/s
True Right ascension
21h 14m 47s
True Declination
0° 00' 00"
Sunlit
Object was in daylight at epoch
Visualization orbit readout
Latitude
Unknown
Longitude
Unknown
Altitude
Unknown
Speed
Unknown
Apparent Right ascension
Unknown
Apparent Declination
Unknown
Sunlit
N/A
Visualization observer readout
Local Sidereal Time
05:33:15
Azimuth
Unknown
Elevation
Unknown
Doppler factor
Unknown
Orbital elements
Apogee altitude
36,257.367 km
Perigee altitude
36,131.251 km
Semi-major axis
42,572.446 km
Eccentricity
0.00148
Inclination
3.2284°
RAAN
318.2796°
Arg. of periapsis
222.2163°
True anomaly
138.19903°
Mean anomaly
138.0858°
Eccentric anomaly
138.14243°
Mean motion
0.24709 °/min
Orbital period
1,456.98 mins
BSTAR
0
Loading maneuver chart data...
Computing Atmospheric mass density...
Loading historical data...
Loading historical data...
Loading historical data...
Loading historical data...
Loading historical data...
Loading historical data...
Loading historical data...
Other satellites on launch #97 in the year 2025 (2025-05-12 UTC)

Documentation

Showing up to 5 results
|